Tims Ford Observed Data For Previous 48 Hours

Caption
Day and Hour Reservoir Elevation (behind dam)* Tailwater Elevation (below dam)* Average Hourly Discharge*
9/20/2017 1 AM CDT 887.94 745.59 850
9/20/2017 2 AM CDT 887.94 745.59 850
9/20/2017 3 AM CDT 887.94 745.53 850
9/20/2017 4 AM CDT 887.94 745.54 850
9/20/2017 5 AM CDT 887.93 745.53 850
9/20/2017 6 AM CDT 887.93 745.54 850
9/20/2017 7 AM CDT 887.92 745.53 850
9/20/2017 8 AM CDT 887.92 745.54 850
9/20/2017 9 AM CDT 887.92 745.55 850
9/20/2017 10 AM CDT 887.91 745.48 850
9/20/2017 11 AM CDT 887.90 745.44 850
9/20/2017 12 PM CDT 887.90 745.47 850
9/20/2017 1 PM CDT 887.90 745.46 850
9/20/2017 2 PM CDT 887.90 745.44 850
9/20/2017 3 PM CDT 887.90 745.46 850
9/20/2017 4 PM CDT 887.89 745.45 850
9/20/2017 5 PM CDT 887.89 745.44 850
9/20/2017 6 PM CDT 887.88 745.45 850
9/20/2017 7 PM CDT 887.87 745.46 850
9/20/2017 8 PM CDT 887.88 745.48 850
9/20/2017 9 PM CDT 887.87 745.48 850
9/20/2017 10 PM CDT 887.87 745.48 850
9/20/2017 11 PM CDT 887.86 745.44 850
9/21/2017 12 AM CDT 887.86 745.47 850
9/21/2017 1 AM CDT 887.86 745.46 850
9/21/2017 2 AM CDT 887.85 745.45 850
9/21/2017 3 AM CDT 887.85 745.45 850
9/21/2017 4 AM CDT 887.85 745.47 850
9/21/2017 5 AM CDT 887.84 745.44 850
9/21/2017 6 AM CDT 887.84 745.48 850
9/21/2017 7 AM CDT 887.83 745.48 850
9/21/2017 8 AM CDT 887.82 745.44 850
9/21/2017 9 AM CDT 887.84 745.49 850
9/21/2017 10 AM CDT 887.87 745.45 850
9/21/2017 11 AM CDT 887.84 745.47 850
9/21/2017 12 PM CDT 887.87 745.46 850
9/21/2017 1 PM CDT 887.86 745.47 850
9/21/2017 2 PM CDT 887.87 745.44 850
9/21/2017 3 PM CDT 887.88 745.44 850
9/21/2017 4 PM CDT 887.87 745.43 850
9/21/2017 5 PM CDT 887.89 745.46 850
9/21/2017 6 PM CDT 887.88 745.48 850
9/21/2017 7 PM CDT 887.90 745.44 850
9/21/2017 8 PM CDT 887.89 745.45 850
9/21/2017 9 PM CDT 887.89 745.44 850
9/21/2017 10 PM CDT 887.89 745.45 850
9/21/2017 11 PM CDT 887.89 745.47 850
9/22/2017 12 AM CDT 887.89 745.46 850
9/22/2017 1 AM CDT 887.89 745.46 850
9/22/2017 2 AM CDT 887.89 745.48 850
9/22/2017 3 AM CDT 887.89 745.46 850
9/22/2017 4 AM CDT 887.89 745.47 850
9/22/2017 5 AM CDT 887.88 745.45 850
9/22/2017 6 AM CDT 887.88 745.44 850
9/22/2017 7 AM CDT 887.88 745.45 850
9/22/2017 8 AM CDT 887.87 745.45 850
9/22/2017 9 AM CDT 887.87 745.48 850
9/22/2017 10 AM CDT 887.87 745.44 850
9/22/2017 11 AM CDT 887.87 745.46 850
9/22/2017 12 PM CDT 887.87 745.47 850
9/22/2017 1 PM CDT 887.87 743.92 240
9/22/2017 2 PM CDT 887.87 743.80 240
9/22/2017 3 PM CDT 887.87 743.79 240
9/22/2017 4 PM CDT 887.87 743.77 240
9/22/2017 5 PM CDT 887.87 743.77 240
9/22/2017 6 PM CDT 887.87 743.78 240
9/22/2017 7 PM CDT 887.88 743.79 240
9/22/2017 8 PM CDT 887.88 743.77 240
9/22/2017 9 PM CDT 887.88 743.77 240
9/22/2017 10 PM CDT 887.88 743.76 240

Elevations are in feet above sea level. Discharges are in cubic feet per second and are reported at the end of the hour.